This is the latest recevied weather packets stored in our database for station/object KB1WCR. If no packets are shown the sender has not sent any weather packets the latest 10 day(s).
| Time | Temp. | Humidity | Pressure | Rain* | Wind** | Luminosity | Snow |
|---|---|---|---|---|---|---|---|
| 1777868753 | -1.11° C | 95% | 1008.1 hPa | 0 mm | - | 0 W/m² | - |
| 1777868450 | -1.11° C | 95% | 1008.1 hPa | 0 mm | - | 0 W/m² | - |
| 1777868145 | -1.11° C | 95% | 1008 hPa | 0 mm | - | 0 W/m² | - |
| 1777867842 | -0.56° C | 95% | 1008.1 hPa | 0 mm | - | 0 W/m² | - |
| 1777867539 | -0.56° C | 94% | 1008 hPa | 0 mm | - | 0 W/m² | - |
| 1777867236 | -0.56° C | 94% | 1007.9 hPa | 0 mm | - | 0 W/m² | - |
| 1777866932 | -0.56° C | 94% | 1008 hPa | 0 mm | - | 0 W/m² | - |
| 1777866629 | -0.56° C | 94% | 1008 hPa | 0 mm | - | 0 W/m² | - |
| 1777866327 | -1.11° C | 93% | 1008 hPa | 0 mm | - | 0 W/m² | - |
| 1777866024 | -0.56° C | 93% | 1007.8 hPa | 0 mm | - | 0 W/m² | - |
| 1777865722 | -0.56° C | 93% | 1007.9 hPa | 0 mm | - | 0 W/m² | - |
| 1777865419 | 0° C | 92% | 1007.7 hPa | 0 mm | - | 0 W/m² | - |
| 1777865115 | 0° C | 92% | 1008 hPa | 0 mm | - | 0 W/m² | - |
| 1777864812 | 0° C | 92% | 1007.8 hPa | 0 mm | - | 0 W/m² | - |
| 1777864509 | 0° C | 91% | 1007.9 hPa | 0 mm | - | 0 W/m² | - |
| 1777864205 | 0.56° C | 90% | 1008 hPa | 0 mm | - | 0 W/m² | - |
| 1777863903 | 0.56° C | 91% | 1008 hPa | 0 mm | - | 0 W/m² | - |
| 1777863598 | 0.56° C | 90% | 1007.8 hPa | 0 mm | - | 0 W/m² | - |
| 1777863296 | 0.56° C | 89% | 1007.8 hPa | 0 mm | - | 0 W/m² | - |
| 1777862992 | 0.56° C | 89% | 1007.9 hPa | 0 mm | - | 0 W/m² | - |
| 1777862689 | 1.11° C | 88% | 1007.8 hPa | 0 mm | - | 0 W/m² | - |
| 1777862386 | 1.67° C | 87% | 1007.7 hPa | 0 mm | - | 0 W/m² | - |
| 1777862084 | 1.11° C | 87% | 1007.6 hPa | 0 mm | - | 0 W/m² | - |
| 1777861779 | 1.67° C | 87% | 1007.8 hPa | 0 mm | - | 0 W/m² | - |
| 1777861475 | 1.67° C | 86% | 1007.8 hPa | 0 mm | - | 0 W/m² | - |
* Rain latest hour (hover to see other rain measurements)
** Current wind speed in m/s (hover to see current wind gust speed)